Regional Weather Roundup
Issued by NWS

Home | Current Version | Previous Version | Text Only | Print | Product List | Glossary On
Versions: 1 2 3 4 5 6 7 8 9 10 11 12 13 14 15 16 17 18 19 20 21 22 23 24 25 26 27 28 29 30 31 32 33 34 35 36 37 38 39 40 41 42 43 44 45 46 47 48 49 50
895
ASUS45 KTFX 300710
RWRMT
MONTANA REGIONAL WEATHER ROUNDUP
NATIONAL WEATHER SERVICE GREAT FALLS MT
100 AM MDT THU MAR 30 2017

NOTE: "FAIR" INDICATES FEW OR NO CLOUDS BELOW 12000 FEET WITH NO
SIGNIFICANT WEATHER AND/OR OBSTRUCTIONS TO VISIBILITY.

MTZ001>007-043-300800-
WEST OF THE DIVIDE

CITY           SKY/WX    TMP DP  RH WIND       PRES   REMARKS
KALISPELL      CLOUDY    43  41  93 S7        29.79F
MISSOULA       CLOUDY    47  40  76 E7        29.84F
BUTTE          CLOUDY    39  34  82 SE5       29.84F
MULLAN PASS    CLOUDY    32  32 100 W12G18    29.80F WCI  23
ANACONDA         N/A     43  34  70 SW12      29.83F
DEER LODGE       N/A     39  36  87 S6        29.84F
EUREKA           N/A     45  39  81 SE12      29.76F
HAMILTON         N/A     45  39  81 S12       29.84F
PLAINS           N/A     43  37  79 CALM      29.84
RONAN            N/A     45  40  82 SE2       29.87F
THOMPSON FALLS   N/A     43  41  93 CALM      29.88F
$$

MTZ008-052>055-300800-
SOUTHWEST MONTANA

CITY           SKY/WX    TMP DP  RH WIND       PRES   REMARKS
BOZEMAN        CLOUDY    43  41  93 CALM      29.84F
DILLON         CLOUDY    41  38  89 SE5       29.84F
W YELLOWSTONE  CLOUDY    32  32 100 CALM      29.93F FOG
ENNIS          CLOUDY    39  37  93 S13       29.90F WCI  32
$$

MTZ009-010-012-014-046-048-049-054-300800-
EAST SLOPES AND CENTRAL MONTANA

CITY           SKY/WX    TMP DP  RH WIND       PRES   REMARKS
CUT BANK       MOCLDY    42  32  67 W14       29.70F
GREAT FALLS    CLOUDY    48  34  58 SW18      29.73F
MALMSTROM AFB  CLOUDY    49  35  58 SW20      29.74F
HELENA         PTCLDY    45  38  76 SW6       29.80F
AUGUSTA          N/A     42  31  65 SW16      29.73F
BOWMANS CRNR     N/A     41  34  75 S13       29.74F
CHOTEAU          N/A     45  32  61 SW14      29.73F
CONRAD           N/A     34  30  85 SW1       29.76F
FAIRFIELD        N/A     46  31  55 S14       29.72F
POWER            N/A     42  33  70 S9        29.72F
RAYNESFORD     CLOUDY    50  34  53 SW15      29.76S
$$

MTZ011-013-016-021-045-047-050-051-300800-
NORTH CENTRAL MONTANA

CITY           SKY/WX    TMP DP  RH WIND       PRES   REMARKS
HAVRE          PTCLDY    46  37  71 SW13      29.71S
LEWISTOWN      CLOUDY    46  34  62 SW10      29.76F
N BAR RANCH    CLOUDY    43  32  65 SE3       29.80S
CHINOOK          N/A     45  36  70 CALM      29.70F
DENTON         MOCLDY    49  34  57 S7        29.71F
FORT BENTON      N/A     54  36  50 MISG      29.73F
GEYSER         MOCLDY    50  33  51 W29G38    29.71F
GRASS RANGE      N/A     45  35  69 CALM      29.73S
JUDITH GAP     CLOUDY    45  35  67 W7        29.78F
STANFORD       CLOUDY    50  31  48 W12G20    29.75F
WINIFRED         N/A     47  34  60 W6        29.74F
$$

MTZ017>020-022>027-061-062-300800-
NORTHEAST MONTANA

CITY           SKY/WX    TMP DP  RH WIND       PRES   REMARKS
GLASGOW        PTCLDY    45  33  63 E12       29.74F
JORDAN           N/A     51  33  50 S10       29.74F
SIDNEY         CLOUDY    42  33  70 N3        29.79F
WOLF POINT     CLOUDY    46  36  68 NE7       29.78S
MALTA          CLOUDY    50  32  50 CALM      29.72S
PLENTYWOOD       N/A     45  30  57 NE5       29.78S
POPLAR           N/A     46  34  61 CALM      29.79S
SCOBEY           N/A     43  30  60 CALM      29.77
$$

MTZ028>42-056>058-300800-
SOUTHCENTRAL AND SOUTHEAST MONTANA

CITY           SKY/WX    TMP DP  RH WIND       PRES   REMARKS
BAKER          CLOUDY    44  34  67 S12       29.81F
BILLINGS       CLOUDY    51  37  58 NW13      29.79F
LIVINGSTON     CLOUDY    48  33  56 W9        29.82F
MILES CITY     CLOUDY    50  32  50 S9        29.77F
BIG TIMBER     MOCLDY    46  37  71 W17       29.84S
EKALAKA          N/A     46  36  68 SE7       29.81
FORSYTH          N/A     54  32  43 CALM      29.76F
HARLOWTON      CLOUDY    47  37  69 NW7       29.81R
LAUREL           N/A     51  30  44 NW8       29.80F
$$

REGIONAL REPORTS...DAKOTAS

CITY           SKY/WX    TMP DP  RH WIND       PRES   REMARKS
WILLISTON      PTCLDY    44  35  70 CALM      29.79F
MINOT          CLOUDY    50  39  66 SW9       29.80F
DICKINSON      CLEAR     38  35  89 S10       29.81F WCI  31
BEACH          CLOUDY    43  32  65 S8        29.84F
TIOGA          CLOUDY    39  39 100 E3        29.81F
WATFORD CITY     N/A     39  36  87 CALM      29.79F
BISMARCK       CLOUDY    47  35  63 SE16      29.92S
GRAND FORKS    CLOUDY    42  37  82 S17       29.98S
FARGO          PTCLDY    40  37  89 S13       30.02F
BUFFALO SD       N/A     43  38  82 S15       29.77F
RAPID CITY     CLEAR     35  34  96 SE7       29.89F WCI  29
$$

REGIONAL REPORTS...WYOMING/IDAHO/WASHINGTON

CITY           SKY/WX    TMP DP  RH WIND       PRES   REMARKS
GILLETTE       CLOUDY    43  37  79 S17       29.83F
SHERIDAN       CLOUDY    44  37  76 CALM      29.80F
BUFFALO WY     CLOUDY    46  29  51 SW5       29.83F
CODY           CLOUDY    48  31  51 W9        29.85F
YELLOWSTONE LA   N/A     31  31 100 CALM      29.96F
IDAHO FALLS    CLOUDY    49  37  63 S8        29.92F
SALMON         CLOUDY    43  43 100 CALM      29.86F
BOISE          CLOUDY    48  46  93 S3        29.91F
SPOKANE        MOCLDY    45  41  86 SW15      29.80F
$$

REGIONAL REPORTS...ALBERTA

CITY           SKY/WX    TMP DP  RH WIND       PRES   REMARKS
EDMONTON       CLOUDY    36  32  87 NE8       29.68S WCI  29
CALGARY        PTCLDY    32  27  80 S3        29.63R
LETHBRIDGE     CLEAR     39  30  70 SW3       29.66F
MEDICINE HAT   PTCLDY    43  34  70 S5        29.65F
WATERTON GATE    N/A     43  32  65 SW14G20     N/A
CARDSTON         N/A     43  28  56 W6          N/A
MILK RIVER       N/A     41  34  75 W3          N/A
$$

REGIONAL REPORTS...SASKATCHEWAN

CITY           SKY/WX    TMP DP  RH WIND       PRES   REMARKS
SWIFT CURRENT  MOCLDY    45  34  65 SE8       29.69F
REGINA         CLOUDY    43  32  65 E5        29.75S
SASKATOON      FOG       36  36 100 NE14      29.79R VSB 1/4 WCI  27
CYPRESS HILLS    N/A     37  28  70 S7          N/A
VAL MARIE        N/A     46  30  53 SE8         N/A
ROCKGLEN         N/A     45  28  53 S7          N/A
ASSINIBOIA       N/A     34  34 100 E8          N/A  WCI  27
$$




USA.gov is the U.S. government's official web portal to all federal, state and local government web resources and services.